User: anonymous   Login
Location: Caltech
(34.1382°N, 118.1253°W)
Time: 11:57:39
(UTC-07:00)
Language:

IRS-1A Rocket - Orbit

View from above orbital plane
View from above orbital plane
View from above satellite
View from above satellite

Ground track
Ground track

The orbit data is extracted from the following two-line orbital elements,

1 18961U 88021B   17173.94689681 +.00000208 +00000-0 +16855-3 0  9992
2 18961 099.3372 182.0270 0053657 211.1232 177.8322 14.00729228496226
Epoch (UTC): 22 June 2017 22:43:31
Eccentricity: 0.0053657
inclination: 99.3372°
perigee height: 852 km
apogee height: 930 km
right ascension of ascending node: 182.0270°
argument of perigee: 211.1232°
revolutions per day: 14.00729228
mean anomaly at epoch: 177.8322°
orbit number at epoch: 49622

The dashed part of the orbit path shows where the satellite is in the earth's shadow,  

DLR